Weather History for Kecskemet, Hungary

Change the Weather History Date:

Saturday, March 9, 2013

  Actual Average (LHBP) Record (LHBP)
Temperature  
Mean Temperature 50 °F -  
Max Temperature 59 °F 47 °F 59 °F (2002)
Min Temperature 41 °F 29 °F 15 °F (2006)
Degree Days  
Heating Degree Days 15    
Moisture  
Dew Point 46 °F    
Average Humidity 92    
Maximum Humidity 100    
Minimum Humidity 63    
Precipitation  
Precipitation 0.00 in - - ()
Sea Level Pressure  
Sea Level Pressure 29.59 in    
Wind  
Wind Speed 3 mph ()    
Max Wind Speed 11 mph    
Max Gust Speed -    
Visibility 2.6 miles    
Events Fog , Rain    
Averages and records for this station are not official NWS values.
T = Trace of Precipitation, MM = Missing Value Source: Averaged Metar Reports

Daily Weather History Graph

Daily Weather History Graph

Search for Another Location

Airport:

Trip Planner

Search our weather history database for the weather conditions in past years. The results will help you decide how hot, cold, wet, or windy it might be!

Date:

Astronomy

Mar. 09, 2013 Rise Set
Actual Time 6:05 AM CET 5:38 PM CET
Civil Twilight 5:35 AM CET 6:08 PM CET
Nautical Twilight 5:00 AM CET 6:43 PM CET
Astronomical Twilight 4:24 AM CET 7:19 PM CET
Moon 4:25 AM CET (3/9) 3:13 PM CET (3/9)
Length of Visible Light 12h 33m
Length of Day
11h 32m
Waning Crescent, 7% of the Moon is Illuminated
Mar 9
Waning Crescent
Mar 11
New
Mar 19
First Quarter
Mar 27
Full
Apr 3
Last Quarter

Hourly Weather History & Observations

Time (CET) Temp. Windchill Dew Point Humidity Pressure Visibility Wind Dir Wind Speed Gust Speed Precip Events Conditions
12:15 AM 48.2 °F - 48.2 °F 100% 29.59 in 0.5 mi Calm Calm - N/A Fog Fog
12:40 AM 46.4 °F - 46.4 °F 100% 29.59 in 0.3 mi North 2.2 mph - N/A Fog Fog
12:45 AM 46.4 °F - 46.4 °F 100% 29.59 in 0.1 mi North 2.2 mph - N/A Fog Fog
1:15 AM 44.6 °F - 44.6 °F 100% 29.59 in 0.1 mi North 2.2 mph - N/A Fog Fog
1:45 AM 44.6 °F - 44.6 °F 100% 29.59 in 0.1 mi North 2.2 mph - N/A Fog Fog
2:15 AM 44.6 °F - 44.6 °F 100% 29.59 in 0.1 mi Calm Calm - N/A Fog Fog
2:45 AM 42.8 °F - 42.8 °F 100% 29.59 in 0.1 mi Calm Calm - N/A Fog Fog
3:15 AM 41.0 °F - 41.0 °F 100% 29.59 in 0.1 mi NNE 2.2 mph - N/A Fog Fog
3:45 AM 41.0 °F - 41.0 °F 100% 29.59 in 0.1 mi NNE 2.2 mph - N/A Fog Fog
4:15 AM 41.0 °F - 41.0 °F 100% 29.59 in 0.1 mi Calm Calm - N/A Fog Fog
4:45 AM 42.8 °F - 42.8 °F 100% 29.56 in 0.2 mi Calm Calm - N/A Fog Fog
4:53 AM 42.8 °F - 42.8 °F 100% 29.56 in 0.2 mi Calm Calm - N/A Fog Fog
4:59 AM 42.8 °F - 42.8 °F 100% 29.56 in 0.4 mi SSE 2.2 mph - N/A Fog Fog
5:11 AM 42.8 °F - 42.8 °F 100% 29.56 in 0.5 mi SE 2.2 mph - N/A Fog Fog
5:15 AM 42.8 °F - 42.8 °F 100% 29.56 in 0.5 mi SE 2.2 mph - N/A Fog Fog
5:45 AM - - - N/A% - 0.5 mi Variable 4.5 mph - N/A   Mostly Cloudy
6:13 AM 44.6 °F - 44.6 °F 100% 29.56 in 0.9 mi South 2.2 mph - N/A   Mostly Cloudy
6:15 AM 44.6 °F - 44.6 °F 100% 29.56 in 1.2 mi South 2.2 mph - N/A   Mostly Cloudy
6:45 AM 44.6 °F - 44.6 °F 100% 29.56 in 1.2 mi South 2.2 mph - N/A   Mostly Cloudy
7:15 AM 46.4 °F - 46.4 °F 100% 29.59 in 1.9 mi SSW 2.2 mph - N/A   Mostly Cloudy
7:45 AM 48.2 °F - 48.2 °F 100% 29.59 in 2.5 mi SSW 2.2 mph - N/A   Mostly Cloudy
7:56 AM 48.2 °F - 48.2 °F 100% 29.59 in 2.5 mi SW 2.2 mph - N/A Rain Light Rain
8:02 AM 48.2 °F - 48.2 °F 100% 29.59 in 3.1 mi SW 2.2 mph - N/A Rain Light Rain
8:15 AM 50.0 °F - 50.0 °F 100% 29.59 in 3.7 mi WSW 2.2 mph - N/A Rain Light Rain
8:45 AM - - - N/A% - 5.0 mi Variable 4.5 mph - N/A Rain Rain
9:02 AM 53.6 °F - 50.0 °F 88% 29.59 in - WSW 4.5 mph - N/A   Clear
9:15 AM 44.6 °F 40.8 °F 44.6 °F 100% 29.62 in 0.7 mi NW 6.7 mph - N/A   Overcast
9:45 AM 53.6 °F - 48.2 °F 82% 29.59 in 6.2 mi West 4.5 mph - N/A   Mostly Cloudy
10:15 AM 55.4 °F - 50.0 °F 82% 29.59 in 6.2 mi West 6.7 mph - N/A   Scattered Clouds
10:45 AM 57.2 °F - 50.0 °F 77% 29.59 in 6.2 mi West 6.7 mph - N/A   Scattered Clouds
11:15 AM 57.2 °F - 50.0 °F 77% 29.59 in 6.2 mi WSW 6.7 mph - N/A   Scattered Clouds
11:45 AM - - - N/A% - 6.2 mi WNW 6.7 mph - N/A   Mostly Cloudy
12:15 PM 59.0 °F - 46.4 °F 63% 29.59 in 6.2 mi West 8.9 mph - N/A   Mostly Cloudy
12:45 PM 59.0 °F - 48.2 °F 67% 29.59 in 6.2 mi West 8.9 mph - N/A   Mostly Cloudy
1:15 PM 59.0 °F - 48.2 °F 67% 29.59 in 6.2 mi West 11.2 mph - N/A   Mostly Cloudy
1:45 PM 59.0 °F - 48.2 °F 67% 29.59 in 6.2 mi West 8.9 mph - N/A   Mostly Cloudy
2:15 PM 59.0 °F - 48.2 °F 67% 29.59 in 6.2 mi West 8.9 mph - N/A   Mostly Cloudy
2:45 PM - - - N/A% - 6.2 mi WNW 8.9 mph - N/A   Mostly Cloudy
3:15 PM 57.2 °F - 48.2 °F 72% 29.59 in 6.2 mi WNW 8.9 mph - N/A   Overcast
3:45 PM 55.4 °F - 48.2 °F 77% 29.59 in 6.2 mi WNW 6.7 mph - N/A   Overcast
4:15 PM 55.4 °F - 48.2 °F 77% 29.59 in 6.2 mi WNW 6.7 mph - N/A   Overcast
4:45 PM 53.6 °F - 48.2 °F 82% 29.59 in - WNW 6.7 mph - N/A   Clear
5:15 PM 51.8 °F - 48.2 °F 88% 29.59 in - WNW 4.5 mph - N/A   Clear
5:45 PM - - - N/A% - 3.7 mi WNW 4.5 mph - N/A Rain Rain
6:15 PM 50.0 °F - 46.4 °F 87% 29.59 in 4.3 mi West 4.5 mph - N/A   Unknown
6:36 PM 50.0 °F - 48.2 °F 94% 29.59 in 3.1 mi West 2.2 mph - N/A   Mostly Cloudy
6:45 PM - - - N/A% - 3.1 mi West 4.5 mph - N/A   Mostly Cloudy
7:15 PM 48.2 °F - 46.4 °F 93% 29.59 in 2.5 mi West 2.2 mph - N/A   Mostly Cloudy
7:45 PM 48.2 °F - 48.2 °F 100% 29.59 in 2.5 mi WNW 2.2 mph - N/A   Mostly Cloudy
8:15 PM 48.2 °F - 46.4 °F 93% 29.59 in 1.9 mi WNW 2.2 mph - N/A   Overcast
8:45 PM - - - N/A% - 1.2 mi Variable 4.5 mph - N/A   Overcast
9:15 PM 48.2 °F - 48.2 °F 100% 29.59 in 0.9 mi Calm Calm - N/A   Overcast
9:45 PM 46.4 °F - 46.4 °F 100% 29.59 in 0.9 mi Calm Calm - N/A   Overcast
10:15 PM 48.2 °F - 48.2 °F 100% 29.59 in 0.9 mi Calm Calm - N/A Rain Light Rain
10:45 PM 48.2 °F - 48.2 °F 100% 29.59 in 0.9 mi Calm Calm - N/A Rain Light Rain
11:15 PM 48.2 °F - 48.2 °F 100% 29.56 in 0.7 mi NNE 2.2 mph - N/A Rain Light Rain
11:45 PM - - - N/A% - 0.9 mi North - - N/A   Overcast